Regional Weather Roundup
Issued by NWS Green Bay, WI

Home | Current Version | Previous Version | Graphics & Text | Print | Product List | Glossary Off
Versions: 1 2 3 4 5 6 7 8 9 10 11 12 13 14 15 16 17 18 19 20 21 22 23 24 25 26 27 28 29 30 31 32 33 34 35 36 37 38 39 40 41 42 43 44 45 46 47 48 49 50

000
ASUS43 KGRB 010159
RWRGRB

NORTH-CENTRAL AND NORTHEAST WISCONSIN REGIONAL WEATHER ROUNDUP
NATIONAL WEATHER SERVICE GREEN BAY WI
800 PM CST SAT JAN 31 2015

WIZ005-009-010>012-018-019-010300-
NORTH CENTRAL WISCONSIN

CITY           SKY/WX    TMP DP  RH WIND       PRES   REMARKS
IRONWOOD       CLOUDY    12   7  79 NE9       30.26F WCI   0
MANITOWISH WTR NOT AVBL
ARBOR VITAE    NOT AVBL
EAGLE RIVER    NOT AVBL
LAND O LAKES   NOT AVBL
RHINELANDER    MOCLDY    13   5  70 NE5       30.22S WCI   5
PHILLIPS       NOT AVBL
ANTIGO         NOT AVBL
TOMAHAWK       NOT AVBL
MERRILL        NOT AVBL
$$

WIZ013-073-010300-
NORTHEAST WISCONSIN

CITY           SKY/WX    TMP DP  RH WIND       PRES   REMARKS
IRON MOUNTAIN  CLOUDY    14   5  67 NE10      30.25S WCI   1
MARINETTE      CLOUDY    18   9  68 NE15G22   30.28R WCI   3
$$

WIZ017-030-035>037-045-010300-
CENTRAL WISCONSIN

CITY           SKY/WX    TMP DP  RH WIND       PRES   REMARKS
MEDFORD        NOT AVBL
WAUSAU         CLOUDY    23  13  65 NE8       30.19R
MOSINEE        NOT AVBL
MARSHFIELD     CLOUDY    24  16  71 NE9       30.18S
WISC RAPIDS    CLOUDY    26  17  68 NE8       30.20S
STEVENS POINT  NOT AVBL
WAUPACA        NOT AVBL
SHAWANO        NOT AVBL
CLINTONVILLE   NOT AVBL
$$

WIZ038-039-048-051-010300-
FOX VALLEY

CITY           SKY/WX    TMP DP  RH WIND       PRES   REMARKS
NWS GREEN BAY  CLOUDY    23  16  74 NE21      30.25R WCI   8
APPLETON       CLOUDY    27  18  69 E7        30.21S
OSHKOSH        CLOUDY    27  19  72 E6        30.21S
FOND DU LAC    CLOUDY    27  19  72 E8        30.21S
$$

WIZ022-050-052-010300-
EAST CENTRAL WISCONSIN

CITY           SKY/WX    TMP DP  RH WIND       PRES   REMARKS
STURGEON BAY   CLOUDY    19   9  63 NE16G23   30.29R WCI   5
MANITOWOC      CLOUDY    27  19  74 NE6       30.23S
SHEBOYGAN      CLOUDY    27  19  72 N6        30.22S
$$

LMZ563-521-522-541>543-010300-
LAKESHORE

STATION/POSITION TIME  TEMP    WIND        PRES    VSBY  WAVE
                       AIR SEA DIR/SP/G                  HT/PER
                 (UTC) (F)     (DEG/KT/KT) (MB)    (MI)  (FT/S)
SHEBOYGAN LKSHOR 0100   28      30/ 12/ 14 1024.5R
KEWAUNEE LKSHORE 0100   26      40/ 21/ 25 1023.1R
NORTHPORT PIER   0100   19     360/ 21     1025.4S
SISTER BAY LKSHO 0100   18     360/ 20/ 27   N/A
STURGEON BAY CG  0100   23      50/  7     1024.3R   3/8   1
CHAMBERS ISLAND  0100   19     360/ 18/ 23 1025.4R
MENOMINEE LKSHOR 0100   19      30/ 21     1025.9R
$$


USA.gov is the U.S. government's official web portal to all federal, state and local government web resources and services.